Location: Regona
(45.2000°N, 9.8167°E)
Time: 12:31:52
(UTC+00:00)

Cosmos 1980 Rocket - Pass Details

Date: 07 June 2020
Orbit: 828 x 851 km, 71.0° (Epoch: 02 July)

Event Time Altitude Azimuth Distance (km) Brightness Sun altitude
Exits shadow 00:51:57 28° 235° (SW) 1,507 3.0 -18.8°
Maximum altitude 00:54:43 55° 300° (WNW) 1,001 2.6 -18.7°
Drops below altitude 10° 01:00:17 10° 19° (NNE) 2,470 5.9 -18.3°
Sets 01:02:49 0° 24° (NNE) 3,413 7.1 -18.1°
